User: anonymous   Login
Location: Hochstatterhof
(48.7256°N, 10.3487°E)
Time: 03:03:30
(UTC+00:00)
Language:

IRS-1C - Orbit

View from above orbital plane
View from above orbital plane
View from above satellite
View from above satellite

Ground track
Ground track

The orbit data is extracted from the following two-line orbital elements,

1 23751U 95072A   24060.59493165  .00000196  00000-0  10773-3 0  9992
2 23751  99.0046  47.4833 0000980  96.4608 263.6681 14.23037274462273
Epoch (UTC): 29 February 2024 14:16:42
Eccentricity: 0.0000980
inclination: 99.0046°
perigee height: 814 km
apogee height: 816 km
right ascension of ascending node: 47.4833°
argument of perigee: 96.4608°
revolutions per day: 14.23037274
mean anomaly at epoch: 263.6681°
orbit number at epoch: 46227

The dashed part of the orbit path shows where the satellite is in the earth's shadow,  

DLR